カタログに戻る

SL-8 DEB *

運用中LEO
NORAD 14806·DEBRIS·🇷🇺 Russia

打ち上げ Aug 28, 1979 から Plesetsk Cosmodrome

Loading…

次のパス (今後24時間)

TLE

最新Source: Space-Track

元期: Sep 14, 2026, 10:26 UTC

1 14806U 79078D   26257.43484112  .00001147  00000-0  23579-3 0  9991
2 14806  74.0283 270.5617 0002171  71.9827 357.1171 14.61803147552943

AllMySatでSL-8 DEB *をリアルタイム追跡

Download on the App Store